This demonstration page uses our WeatherBlox Daily Observations layout. Learn more.

Left ArrowRight Arrow

39.95238, -75.16362

Hourly Observations for August 7, 2016

Temp ( °F °C ) Dew Point ( °F °C ) Humidity (%) Winds ( mph kmh ) Pressure ( in mb ) Visibility ( mi km ) Precip ( " mm )
12:54 am 00:54 Mostly Clear 79 26.1 67 19.4 67 67 N 8 13 29.81 1010 10 16 0.00 0.00
1:54 am 01:54 Mostly Clear 77 25 66 18.9 69 69 NNW 7 11 29.81 1010 10 16 0.00 0.00
2:54 am 02:54 Mostly Clear 75 23.9 63 17.2 66 66 N 7 11 29.82 1010 10 16 0.00 0.00
3:54 am 03:54 Clear 75 23.9 61 16.1 62 62 NNW 3 6 29.83 1010 10 16 0.00 0.00
4:54 am 04:54 Clear 74 23.3 61 16.1 64 64 NW 6 9 29.84 1011 10 16 0.00 0.00
5:54 am 05:54 Mostly Clear 72 22.2 61 16.1 68 68 NW 6 9 29.86 1011 10 16 0.00 0.00
6:54 am 06:54 Mostly Sunny 72 22.2 60 15.6 66 66 NNW 5 7 29.88 1012 10 16 0.00 0.00
7:54 am 07:54 Mostly Sunny 75 23.9 60 15.6 60 60 NW 6 9 29.90 1012 10 16 0.00 0.00
8:54 am 08:54 Mostly Sunny 78 25.6 60 15.6 54 54 N 10 17 29.91 1013 10 16 0.00 0.00
9:54 am 09:54 Mostly Sunny 80 26.7 60 15.6 51 51 N 8 13 29.91 1013 10 16 0.00 0.00
10:54 am 10:54 Sunny 82 27.8 60 15.6 47 47 VRB 3 6 29.92 1013 10 16 0.00 0.00
11:54 am 11:54 Mostly Sunny 84 28.9 59 15 43 43 WNW 8 13 29.91 1013 10 16 0.00 0.00
12:54 pm 12:54 Mostly Sunny 85 29.4 58 14.4 40 40 W 6 9 29.91 1013 10 16 0.00 0.00
1:54 pm 13:54 Mostly Sunny 87 30.6 56 13.3 35 35 NW 10 17 29.91 1013 10 16 0.00 0.00
2:54 pm 14:54 Mostly Sunny 89 31.7 55 12.8 31 31 NW 15 24 29.90 1013 10 16 0.00 0.00
3:54 pm 15:54 Partly Cloudy 88 31.1 57 13.9 35 35 W 13 20 29.90 1013 10 16 0.00 0.00
4:54 pm 16:54 Partly Cloudy 88 31.1 55 12.8 33 33 NW 13 20 29.90 1013 10 16 0.00 0.00
5:54 pm 17:54 Partly Cloudy 86 30 55 12.8 35 35 NNW 9 15 29.90 1013 10 16 0.00 0.00
6:54 pm 18:54 Mostly Cloudy 87 30.6 54 12.2 32 32 NW 10 17 29.91 1013 10 16 0.00 0.00
7:54 pm 19:54 Partly Cloudy 85 29.4 55 12.8 36 36 NNW 7 11 29.91 1013 10 16 0.00 0.00
8:54 pm 20:54 Mostly Cloudy 85 29.4 55 12.8 36 36 NW 6 9 29.93 1014 10 16 0.00 0.00
9:54 pm 21:54 Partly Cloudy 83 28.3 57 13.9 41 41 WSW 6 9 29.95 1014 10 16 0.00 0.00
10:54 pm 22:54 Partly Cloudy 80 26.7 60 15.6 51 51 SW 6 9 29.95 1014 10 16 0.00 0.00
11:54 pm 23:54 Mostly Cloudy 78 25.6 63 17.2 60 60 W 6 9 29.95 1014 10 16 0.00 0.00

Powered by AerisWeather